| time (UTC) | temp F | wind direction | speed MPH | gust MPH | rain 1hr in | rain 24hr in | rain mn in | humidity % | barometer mb |
| 20260905051937 | 77 | 327 | 4.0 | 6.0 | 0.00 | 0.00 | 0.00 | 72 | 1015.8 |
| 20260905051438 | 78 | 335 | 4.0 | 6.0 | 0.00 | 0.00 | 0.00 | 72 | 1015.8 |
| 20260905050938 | 78 | 323 | 4.0 | 5.0 | 0.00 | 0.00 | 0.00 | 71 | 1015.8 |
| 20260905050437 | 78 | 330 | 4.0 | 6.0 | 0.00 | 0.00 | 0.00 | 71 | 1015.8 |
| 20260905045937 | 78 | 340 | 4.0 | 6.0 | 0.00 | 0.00 | 0.00 | 71 | 1015.8 |
| 20260905045437 | 78 | 320 | 4.0 | 6.0 | 0.00 | 0.00 | 0.00 | 70 | 1015.8 |
| 20260905044938 | 79 | 326 | 3.0 | 4.0 | 0.00 | 0.00 | 0.00 | 70 | 1015.8 |
| 20260905044438 | 79 | 312 | 4.0 | 6.0 | 0.00 | 0.00 | 0.00 | 69 | 1015.8 |
| 20260905043938 | 79 | 342 | 5.0 | 6.0 | 0.00 | 0.00 | 0.00 | 69 | 1015.8 |
| 20260905043437 | 79 | 336 | 4.0 | 5.0 | 0.00 | 0.00 | 0.00 | 68 | 1015.8 |
| 20260905042937 | 79 | 341 | 4.0 | 6.0 | 0.00 | 0.00 | 0.00 | 68 | 1015.8 |
| 20260905042437 | 79 | 356 | 4.0 | 6.0 | 0.00 | 0.00 | 0.00 | 68 | 1015.8 |
| 20260905041937 | 80 | 337 | 4.0 | 6.0 | 0.00 | 0.00 | 0.00 | 67 | 1015.8 |
| 20260905041437 | 80 | 338 | 3.0 | 6.0 | 0.00 | 0.00 | 0.00 | 67 | 1015.8 |
| 20260905040937 | 80 | 342 | 4.0 | 6.0 | 0.00 | 0.00 | 0.00 | 67 | 1015.8 |
| 20260905040437 | 80 | 350 | 4.0 | 6.0 | 0.00 | 0.00 | 0.00 | 66 | 1015.8 |
| 20260905035937 | 80 | 346 | 4.0 | 5.0 | 0.00 | 0.00 | 0.00 | 67 | 1015.8 |
| 20260905035439 | 80 | 353 | 3.0 | 4.0 | 0.00 | 0.00 | 0.00 | 66 | 1015.8 |
| 20260905034938 | 80 | 360 | 3.0 | 6.0 | 0.00 | 0.00 | 0.00 | 65 | 1015.8 |
| 20260905034437 | 80 | 343 | 3.0 | 5.0 | 0.00 | 0.00 | 0.00 | 65 | 1015.8 |
| 20260905033937 | 81 | 338 | 4.0 | 7.0 | 0.00 | 0.00 | 0.00 | 64 | 1015.8 |
| 20260905033437 | 81 | 340 | 5.0 | 7.0 | 0.00 | 0.00 | 0.00 | 63 | 1015.8 |
| 20260905032937 | 81 | 347 | 5.0 | 6.0 | 0.00 | 0.00 | 0.00 | 63 | 1015.8 |
| 20260905032437 | 81 | 348 | 5.0 | 6.0 | 0.00 | 0.00 | 0.00 | 63 | 1015.8 |
| 20260905031937 | 81 | 344 | 4.0 | 6.0 | 0.00 | 0.00 | 0.00 | 63 | 1015.8 |
| 20260905031437 | 81 | 355 | 5.0 | 6.0 | 0.00 | 0.00 | 0.00 | 64 | 1015.8 |
| 20260905030937 | 81 | 341 | 5.0 | 6.0 | 0.00 | 0.00 | 0.00 | 64 | 1015.8 |
| 20260905030437 | 81 | 346 | 5.0 | 6.0 | 0.00 | 0.00 | 0.00 | 64 | 1015.8 |
| 20260905025937 | 81 | 339 | 4.0 | 7.0 | 0.00 | 0.00 | 0.00 | 63 | 1015.8 |
| 20260905025439 | 81 | 328 | 4.0 | 6.0 | 0.00 | 0.00 | 0.00 | 63 | 1015.8 |
| 20260905024937 | 82 | 330 | 4.0 | 6.0 | 0.00 | 0.00 | 0.00 | 63 | 1015.8 |
| 20260905024438 | 82 | 349 | 5.0 | 6.0 | 0.00 | 0.00 | 0.00 | 63 | 1015.8 |
| 20260905023937 | 82 | 343 | 5.0 | 6.0 | 0.00 | 0.00 | 0.00 | 62 | 1015.8 |
| 20260905023437 | 82 | 334 | 4.0 | 6.0 | 0.00 | 0.00 | 0.00 | 63 | 1015.8 |
| 20260905022937 | 82 | 343 | 5.0 | 6.0 | 0.00 | 0.00 | 0.00 | 63 | 1015.8 |
| 20260905022437 | 83 | 349 | 4.0 | 6.0 | 0.00 | 0.00 | 0.00 | 62 | 1015.8 |
| 20260905021937 | 83 | 349 | 4.0 | 6.0 | 0.00 | 0.00 | 0.00 | 61 | 1015.8 |
| 20260905021437 | 83 | 328 | 4.0 | 5.0 | 0.00 | 0.00 | 0.00 | 60 | 1015.8 |
| 20260905020938 | 83 | 347 | 4.0 | 6.0 | 0.00 | 0.00 | 0.00 | 61 | 1015.8 |
| 20260905020437 | 84 | 328 | 4.0 | 6.0 | 0.00 | 0.00 | 0.00 | 60 | 1015.8 |
| 20260905015937 | 84 | 345 | 4.0 | 6.0 | 0.00 | 0.00 | 0.00 | 59 | 1015.8 |
| 20260905015437 | 84 | 344 | 4.0 | 6.0 | 0.00 | 0.00 | 0.00 | 60 | 1015.8 |
| 20260905014937 | 84 | 350 | 5.0 | 6.0 | 0.00 | 0.00 | 0.00 | 60 | 1015.8 |
| 20260905014437 | 84 | 343 | 5.0 | 6.0 | 0.00 | 0.00 | 0.00 | 60 | 1015.8 |
| 20260905013937 | 84 | 344 | 5.0 | 6.0 | 0.00 | 0.00 | 0.00 | 60 | 1015.8 |
| 20260905013437 | 85 | 320 | 4.0 | 6.0 | 0.00 | 0.00 | 0.00 | 60 | 1015.8 |
| 20260905012937 | 85 | 322 | 4.0 | 6.0 | 0.00 | 0.00 | 0.00 | 59 | 1015.8 |
| 20260905012437 | 85 | 324 | 4.0 | 6.0 | 0.00 | 0.00 | 0.00 | 59 | 1015.8 |
| 20260905011937 | 85 | 323 | 4.0 | 6.0 | 0.00 | 0.00 | 0.00 | 59 | 1015.8 |
| 20260905011437 | 86 | 323 | 5.0 | 6.0 | 0.00 | 0.00 | 0.00 | 58 | 1015.8 |
| 20260905010938 | 86 | 323 | 4.0 | 7.0 | 0.00 | 0.00 | 0.00 | 58 | 1015.8 |
| 20260905010437 | 87 | 323 | 6.0 | 7.0 | 0.00 | 0.00 | 0.00 | 57 | 1015.8 |
| 20260905005937 | 88 | 323 | 4.0 | 7.0 | 0.00 | 0.00 | 0.00 | 55 | 1015.8 |
| 20260905005437 | 89 | 321 | 3.0 | 9.0 | 0.00 | 0.00 | 0.00 | 54 | 1015.8 |
| 20260905004938 | 89 | 328 | 4.0 | 8.0 | 0.00 | 0.00 | 0.00 | 54 | 1015.8 |
| 20260905004437 | 90 | 328 | 3.0 | 5.0 | 0.00 | 0.00 | 0.00 | 52 | 1015.8 |
| 20260905003938 | 91 | 295 | 2.0 | 5.0 | 0.00 | 0.00 | 0.00 | 51 | 1015.8 |
| 20260905003438 | 91 | 320 | 2.0 | 6.0 | 0.00 | 0.00 | 0.00 | 50 | 1015.8 |
| 20260905002937 | 92 | 324 | 3.0 | 5.0 | 0.00 | 0.00 | 0.00 | 49 | 1015.8 |
| 20260905002438 | 93 | 318 | 3.0 | 5.0 | 0.00 | 0.00 | 0.00 | 48 | 1015.8 |
| 20260905001937 | 94 | 328 | 3.0 | 5.0 | 0.00 | 0.00 | 0.00 | 47 | 1015.8 |
| 20260905001437 | 95 | 324 | 3.0 | 4.0 | 0.00 | 0.00 | 0.00 | 45 | 1015.8 |
| 20260905000937 | 95 | 311 | 1.0 | 3.0 | 0.00 | 0.00 | 0.00 | 44 | 1015.8 |
| 20260905000439 | 96 | 298 | 2.0 | 3.0 | 0.00 | 0.00 | 0.00 | 43 | 1015.8 |
| 20260904235937 | 96 | 234 | 2.0 | 4.0 | 0.00 | 0.00 | 0.00 | 42 | 1015.8 |
| 20260904235437 | 96 | 171 | 2.0 | 6.0 | 0.00 | 0.00 | 0.00 | 42 | 1015.8 |
| 20260904234937 | 96 | 213 | 4.0 | 9.0 | 0.00 | 0.00 | 0.00 | 41 | 1015.8 |
| 20260904234437 | 97 | 171 | 6.0 | 9.0 | 0.00 | 0.00 | 0.00 | 40 | 1015.8 |
| 20260904233937 | 97 | 192 | 5.0 | 8.0 | 0.00 | 0.00 | 0.00 | 40 | 1015.8 |
| 20260904233437 | 97 | 264 | 2.0 | 7.0 | 0.00 | 0.00 | 0.00 | 40 | 1015.8 |
| 20260904232937 | 97 | 170 | 4.0 | 5.0 | 0.00 | 0.00 | 0.00 | 39 | 1015.8 |
| 20260904232438 | 97 | 292 | 1.0 | 6.0 | 0.00 | 0.00 | 0.00 | 39 | 1015.8 |
| 20260904231938 | 97 | 214 | 3.0 | 8.0 | 0.00 | 0.00 | 0.00 | 39 | 1015.8 |
| 20260904231437 | 97 | 224 | 2.0 | 8.0 | 0.00 | 0.00 | 0.00 | 39 | 1015.8 |
| 20260904230938 | 97 | 210 | 3.0 | 9.0 | 0.00 | 0.00 | 0.00 | 39 | 1015.8 |
| 20260904230439 | 97 | 185 | 6.0 | 9.0 | 0.00 | 0.00 | 0.00 | 40 | 1015.8 |
| 20260904225939 | 98 | 188 | 4.0 | 6.0 | 0.00 | 0.00 | 0.00 | 40 | 1015.8 |
| 20260904225437 | 97 | 16 | 2.0 | 8.0 | 0.00 | 0.00 | 0.00 | 40 | 1015.8 |
| 20260904224937 | 97 | 156 | 3.0 | 8.0 | 0.00 | 0.00 | 0.00 | 40 | 1015.8 |
| 20260904224438 | 97 | 195 | 6.0 | 9.0 | 0.00 | 0.00 | 0.00 | 40 | 1015.8 |
| 20260904223938 | 97 | 212 | 5.0 | 9.0 | 0.00 | 0.00 | 0.00 | 40 | 1015.8 |
| 20260904223437 | 97 | 203 | 5.0 | 10.0 | 0.00 | 0.00 | 0.00 | 39 | 1015.8 |
| 20260904222937 | 96 | 164 | 4.0 | 8.0 | 0.00 | 0.00 | 0.00 | 40 | 1015.8 |
| 20260904222437 | 96 | 214 | 4.0 | 9.0 | 0.00 | 0.00 | 0.00 | 41 | 1015.8 |
| 20260904221937 | 97 | 190 | 5.0 | 10.0 | 0.00 | 0.00 | 0.00 | 41 | 1015.8 |
| 20260904221437 | 98 | 199 | 6.0 | 12.0 | 0.00 | 0.00 | 0.00 | 39 | 1015.8 |
| 20260904220937 | 99 | 157 | 8.0 | 11.0 | 0.00 | 0.00 | 0.00 | 39 | 1015.8 |
| 20260904220437 | 99 | 163 | 6.0 | 9.0 | 0.00 | 0.00 | 0.00 | 37 | 1015.8 |
| 20260904215937 | 99 | 169 | 4.0 | 9.0 | 0.00 | 0.00 | 0.00 | 38 | 1015.8 |
| 20260904215437 | 99 | 170 | 6.0 | 8.0 | 0.00 | 0.00 | 0.00 | 37 | 1015.8 |
| 20260904214937 | 99 | 194 | 6.0 | 11.0 | 0.00 | 0.00 | 0.00 | 37 | 1015.8 |
| 20260904214437 | 100 | 184 | 7.0 | 9.0 | 0.00 | 0.00 | 0.00 | 38 | 1015.8 |
| 20260904213937 | 100 | 171 | 5.0 | 9.0 | 0.00 | 0.00 | 0.00 | 37 | 1015.8 |
| 20260904213437 | 100 | 167 | 3.0 | 9.0 | 0.00 | 0.00 | 0.00 | 37 | 1015.8 |
| 20260904212937 | 100 | 157 | 5.0 | 9.0 | 0.00 | 0.00 | 0.00 | 37 | 1015.8 |
| 20260904212437 | 100 | 156 | 6.0 | 9.0 | 0.00 | 0.00 | 0.00 | 37 | 1015.8 |
| 20260904211938 | 100 | 226 | 3.0 | 9.0 | 0.00 | 0.00 | 0.00 | 37 | 1015.8 |
| 20260904211437 | 100 | 200 | 6.0 | 9.0 | 0.00 | 0.00 | 0.00 | 36 | 1015.8 |
| 20260904210942 | 100 | 238 | 4.0 | 7.0 | 0.00 | 0.00 | 0.00 | 36 | 1015.8 |
| 20260904210439 | 100 | 40 | 4.0 | 9.0 | 0.00 | 0.00 | 0.00 | 37 | 1015.8 |
| 20260904205937 | 100 | 322 | 3.0 | 8.0 | 0.00 | 0.00 | 0.00 | 36 | 1015.8 |
| 20260904205437 | 99 | 176 | 5.0 | 11.0 | 0.00 | 0.00 | 0.00 | 36 | 1015.8 |
| 20260904204937 | 100 | 162 | 8.0 | 11.0 | 0.00 | 0.00 | 0.00 | 37 | 1015.8 |
| 20260904204437 | 100 | 179 | 6.0 | 9.0 | 0.00 | 0.00 | 0.00 | 35 | 1015.8 |
| 20260904203938 | 100 | 185 | 3.0 | 10.0 | 0.00 | 0.00 | 0.00 | 36 | 1015.8 |
| 20260904203437 | 100 | 148 | 3.0 | 7.0 | 0.00 | 0.00 | 0.00 | 36 | 1015.8 |
| 20260904202937 | 100 | 203 | 2.0 | 9.0 | 0.00 | 0.00 | 0.00 | 36 | 1015.8 |
| 20260904202437 | 100 | 165 | 3.0 | 9.0 | 0.00 | 0.00 | 0.00 | 36 | 1015.8 |
| 20260904201938 | 100 | 196 | 4.0 | 9.0 | 0.00 | 0.00 | 0.00 | 36 | 1015.8 |
| 20260904201437 | 99 | 171 | 5.0 | 9.0 | 0.00 | 0.00 | 0.00 | 36 | 1015.8 |
| 20260904200937 | 99 | 165 | 4.0 | 9.0 | 0.00 | 0.00 | 0.00 | 36 | 1015.8 |
| 20260904200438 | 98 | 160 | 4.0 | 11.0 | 0.00 | 0.00 | 0.00 | 38 | 1015.8 |
| 20260904195937 | 98 | 173 | 8.0 | 11.0 | 0.00 | 0.00 | 0.00 | 37 | 1015.8 |
| 20260904195439 | 99 | 198 | 6.0 | 13.0 | 0.00 | 0.00 | 0.00 | 38 | 1015.8 |
| 20260904194937 | 99 | 178 | 8.0 | 10.0 | 0.00 | 0.00 | 0.00 | 38 | 1015.8 |
| 20260904194437 | 98 | 175 | 6.0 | 11.0 | 0.00 | 0.00 | 0.00 | 39 | 1015.8 |
| 20260904193938 | 99 | 185 | 7.0 | 11.0 | 0.00 | 0.00 | 0.00 | 39 | 1015.8 |
| 20260904193437 | 99 | 183 | 4.0 | 9.0 | 0.00 | 0.00 | 0.00 | 38 | 1015.8 |
| 20260904192937 | 98 | 271 | 5.0 | 9.0 | 0.00 | 0.00 | 0.00 | 37 | 1015.8 |
| 20260904192437 | 98 | 165 | 3.0 | 9.0 | 0.00 | 0.00 | 0.00 | 40 | 1015.8 |
| 20260904191937 | 99 | 213 | 4.0 | 11.0 | 0.00 | 0.00 | 0.00 | 38 | 1015.8 |
| 20260904191438 | 99 | 161 | 8.0 | 11.0 | 0.00 | 0.00 | 0.00 | 38 | 1015.8 |
| 20260904190938 | 98 | 204 | 3.0 | 7.0 | 0.00 | 0.00 | 0.00 | 38 | 1015.8 |
| 20260904190438 | 98 | 170 | 2.0 | 8.0 | 0.00 | 0.00 | 0.00 | 38 | 1015.8 |
| 20260904185944 | 97 | 270 | 4.0 | 12.0 | 0.00 | 0.00 | 0.00 | 40 | 1015.8 |
| 20260904185438 | 98 | 161 | 8.0 | 12.0 | 0.00 | 0.00 | 0.00 | 39 | 1015.8 |
| 20260904184937 | 98 | 189 | 4.0 | 8.0 | 0.00 | 0.00 | 0.00 | 38 | 1015.8 |
| 20260904184437 | 98 | 265 | 2.0 | 6.0 | 0.00 | 0.00 | 0.00 | 41 | 1015.8 |
| 20260904183940 | 98 | 306 | 3.0 | 9.0 | 0.00 | 0.00 | 0.00 | 39 | 1015.8 |
| 20260904183438 | 98 | 170 | 7.0 | 13.0 | 0.00 | 0.00 | 0.00 | 41 | 1015.8 |
| 20260904182937 | 98 | 180 | 6.0 | 9.0 | 0.00 | 0.00 | 0.00 | 38 | 1015.8 |
| 20260904182438 | 97 | 244 | 3.0 | 9.0 | 0.00 | 0.00 | 0.00 | 39 | 1015.8 |
| 20260904181937 | 97 | 186 | 4.0 | 11.0 | 0.00 | 0.00 | 0.00 | 41 | 1015.8 |
| 20260904181438 | 98 | 156 | 9.0 | 11.0 | 0.00 | 0.00 | 0.00 | 41 | 1015.8 |
| 20260904180937 | 98 | 239 | 4.0 | 9.0 | 0.00 | 0.00 | 0.00 | 39 | 1015.8 |
| 20260904180437 | 96 | 258 | 4.0 | 12.0 | 0.00 | 0.00 | 0.00 | 41 | 1015.8 |
| 20260904175937 | 96 | 158 | 7.0 | 11.0 | 0.00 | 0.00 | 0.00 | 42 | 1015.8 |
| 20260904175437 | 96 | 167 | 8.0 | 11.0 | 0.00 | 0.00 | 0.00 | 41 | 1015.8 |
| 20260904174939 | 96 | 214 | 4.0 | 10.0 | 0.00 | 0.00 | 0.00 | 44 | 1015.8 |
| 20260904174437 | 96 | 165 | 5.0 | 9.0 | 0.00 | 0.00 | 0.00 | 42 | 1015.8 |
| 20260904173938 | 97 | 210 | 6.0 | 9.0 | 0.00 | 0.00 | 0.00 | 42 | 1015.8 |
| 20260904173437 | 96 | 186 | 4.0 | 9.0 | 0.00 | 0.00 | 0.00 | 42 | 1015.8 |
| 20260904172938 | 96 | 212 | 6.0 | 13.0 | 0.00 | 0.00 | 0.00 | 41 | 1015.8 |
| 20260904172437 | 95 | 236 | 2.0 | 12.0 | 0.00 | 0.00 | 0.00 | 44 | 1015.8 |
| 20260904171937 | 95 | 194 | 6.0 | 12.0 | 0.00 | 0.00 | 0.00 | 44 | 1015.8 |
| 20260904171438 | 95 | 170 | 9.0 | 12.0 | 0.00 | 0.00 | 0.00 | 44 | 1015.8 |
| 20260904170938 | 95 | 170 | 8.0 | 11.0 | 0.00 | 0.00 | 0.00 | 44 | 1015.8 |
| 20260904170438 | 95 | 153 | 6.0 | 8.0 | 0.00 | 0.00 | 0.00 | 46 | 1015.8 |
| 20260904165937 | 96 | 161 | 5.0 | 10.0 | 0.00 | 0.00 | 0.00 | 45 | 1015.8 |
| 20260904165437 | 95 | 172 | 4.0 | 12.0 | 0.00 | 0.00 | 0.00 | 45 | 1015.8 |
| 20260904164937 | 96 | 173 | 7.0 | 10.0 | 0.00 | 0.00 | 0.00 | 44 | 1015.8 |
| 20260904164437 | 96 | 284 | 2.0 | 8.0 | 0.00 | 0.00 | 0.00 | 45 | 1015.8 |
| 20260904163937 | 97 | 232 | 2.0 | 9.0 | 0.00 | 0.00 | 0.00 | 43 | 1015.8 |
| 20260904163437 | 96 | 336 | 6.0 | 9.0 | 0.00 | 0.00 | 0.00 | 43 | 1015.8 |
| 20260904162938 | 96 | 331 | 4.0 | 9.0 | 0.00 | 0.00 | 0.00 | 44 | 1015.8 |
| 20260904162437 | 95 | 325 | 4.0 | 9.0 | 0.00 | 0.00 | 0.00 | 45 | 1015.8 |
| 20260904161937 | 95 | 219 | 5.0 | 10.0 | 0.00 | 0.00 | 0.00 | 46 | 1015.8 |
| 20260904161437 | 95 | 260 | 4.0 | 9.0 | 0.00 | 0.00 | 0.00 | 46 | 1015.8 |
| 20260904160937 | 95 | 330 | 4.0 | 10.0 | 0.00 | 0.00 | 0.00 | 47 | 1015.8 |
| 20260904160437 | 94 | 322 | 4.0 | 10.0 | 0.00 | 0.00 | 0.00 | 47 | 1015.8 |
| 20260904155937 | 94 | 314 | 5.0 | 10.0 | 0.00 | 0.00 | 0.00 | 47 | 1015.8 |
| 20260904155439 | 95 | 238 | 4.0 | 9.0 | 0.00 | 0.00 | 0.00 | 47 | 1015.8 |
| 20260904154940 | 94 | 308 | 3.0 | 13.0 | 0.00 | 0.00 | 0.00 | 47 | 1015.8 |
| 20260904154445 | 93 | 2 | 6.0 | 9.0 | 0.00 | 0.00 | 0.00 | 50 | 1015.8 |
| 20260904153937 | 92 | 289 | 2.0 | 10.0 | 0.00 | 0.00 | 0.00 | 51 | 1015.8 |
| 20260904153439 | 92 | 204 | 4.0 | 9.0 | 0.00 | 0.00 | 0.00 | 50 | 1015.8 |
| 20260904152939 | 91 | 286 | 4.0 | 9.0 | 0.00 | 0.00 | 0.00 | 52 | 1015.8 |
| 20260904152437 | 92 | 219 | 4.0 | 9.0 | 0.00 | 0.00 | 0.00 | 52 | 1015.8 |
| 20260904151938 | 92 | 332 | 2.0 | 9.0 | 0.00 | 0.00 | 0.00 | 50 | 1015.8 |
| 20260904151437 | 92 | 255 | 3.0 | 9.0 | 0.00 | 0.00 | 0.00 | 52 | 1015.8 |
| 20260904150937 | 91 | 309 | 6.0 | 8.0 | 0.00 | 0.00 | 0.00 | 51 | 1015.8 |
| 20260904150438 | 90 | 285 | 5.0 | 8.0 | 0.00 | 0.00 | 0.00 | 53 | 1015.8 |
| 20260904145938 | 90 | 236 | 2.0 | 6.0 | 0.00 | 0.00 | 0.00 | 55 | 1015.8 |
| 20260904145437 | 89 | 240 | 4.0 | 6.0 | 0.00 | 0.00 | 0.00 | 57 | 1015.8 |
| 20260904144939 | 88 | 252 | 4.0 | 7.0 | 0.00 | 0.00 | 0.00 | 59 | 1015.8 |
| 20260904144441 | 88 | 211 | 4.0 | 6.0 | 0.00 | 0.00 | 0.00 | 60 | 1015.8 |
| 20260904143937 | 87 | 273 | 3.0 | 8.0 | 0.00 | 0.00 | 0.00 | 61 | 1015.8 |
| 20260904143444 | 87 | 230 | 5.0 | 8.0 | 0.00 | 0.00 | 0.00 | 61 | 1015.8 |
| 20260904142937 | 87 | 222 | 3.0 | 6.0 | 0.00 | 0.00 | 0.00 | 61 | 1015.8 |
| 20260904142437 | 86 | 253 | 3.0 | 9.0 | 0.00 | 0.00 | 0.00 | 62 | 1015.8 |
| 20260904141937 | 86 | 266 | 3.0 | 9.0 | 0.00 | 0.00 | 0.00 | 63 | 1015.8 |
| 20260904141438 | 85 | 293 | 3.0 | 9.0 | 0.00 | 0.00 | 0.00 | 64 | 1015.8 |
| 20260904140938 | 84 | 290 | 2.0 | 6.0 | 0.00 | 0.00 | 0.00 | 66 | 1015.8 |
| 20260904140437 | 85 | 285 | 2.0 | 7.0 | 0.00 | 0.00 | 0.00 | 65 | 1015.8 |
| 20260904135938 | 85 | 243 | 3.0 | 6.0 | 0.00 | 0.00 | 0.00 | 65 | 1015.8 |
| 20260904135438 | 84 | 284 | 3.0 | 5.0 | 0.00 | 0.00 | 0.00 | 66 | 1015.8 |
| 20260904134938 | 84 | 280 | 2.0 | 5.0 | 0.00 | 0.00 | 0.00 | 67 | 1015.8 |
| 20260904134438 | 84 | 227 | 2.0 | 4.0 | 0.00 | 0.00 | 0.00 | 66 | 1015.8 |
| 20260904133938 | 82 | 252 | 2.0 | 4.0 | 0.00 | 0.00 | 0.00 | 69 | 1015.8 |
| 20260904133438 | 82 | 271 | 3.0 | 4.0 | 0.00 | 0.00 | 0.00 | 69 | 1015.8 |
| 20260904132938 | 82 | 281 | 2.0 | 3.0 | 0.00 | 0.00 | 0.00 | 69 | 1015.8 |
| 20260904132437 | 81 | 248 | 2.0 | 4.0 | 0.00 | 0.00 | 0.00 | 72 | 1015.8 |
| 20260904131938 | 81 | 310 | 3.0 | 6.0 | 0.00 | 0.00 | 0.00 | 73 | 1015.8 |
| 20260904131437 | 81 | 290 | 4.0 | 6.0 | 0.00 | 0.00 | 0.00 | 72 | 1015.8 |
| 20260904130938 | 81 | 294 | 3.0 | 5.0 | 0.00 | 0.00 | 0.00 | 72 | 1015.8 |
| 20260904130437 | 81 | 313 | 3.0 | 4.0 | 0.00 | 0.00 | 0.00 | 72 | 1015.8 |
| 20260904125937 | 80 | 302 | 2.0 | 4.0 | 0.00 | 0.00 | 0.00 | 74 | 1015.8 |
| 20260904125437 | 80 | 272 | 1.0 | 5.0 | 0.00 | 0.00 | 0.00 | 73 | 1015.8 |
| 20260904124937 | 79 | 328 | 2.0 | 5.0 | 0.00 | 0.00 | 0.00 | 75 | 1015.8 |
| 20260904124437 | 78 | 302 | 1.0 | 5.0 | 0.00 | 0.00 | 0.00 | 77 | 1015.8 |
| 20260904123937 | 77 | 307 | 1.0 | 4.0 | 0.00 | 0.00 | 0.00 | 78 | 1015.8 |
| 20260904123437 | 76 | 270 | 2.0 | 4.0 | 0.00 | 0.00 | 0.00 | 80 | 1015.8 |
| 20260904122937 | 75 | 279 | 1.0 | 4.0 | 0.00 | 0.00 | 0.00 | 82 | 1015.8 |
| 20260904122437 | 74 | 312 | 2.0 | 4.0 | 0.00 | 0.00 | 0.00 | 84 | 1015.8 |
| 20260904121939 | 73 | 305 | 2.0 | 4.0 | 0.00 | 0.00 | 0.00 | 85 | 1015.8 |
| 20260904121438 | 73 | 319 | 1.0 | 3.0 | 0.00 | 0.00 | 0.00 | 86 | 1015.8 |
| 20260904120937 | 72 | 250 | 2.0 | 4.0 | 0.00 | 0.00 | 0.00 | 87 | 1015.8 |
| 20260904120437 | 72 | 239 | 1.0 | 3.0 | 0.00 | 0.00 | 0.00 | 88 | 1015.8 |
| 20260904115938 | 72 | 291 | 2.0 | 4.0 | 0.00 | 0.00 | 0.00 | 89 | 1015.8 |
| 20260904115437 | 71 | 311 | 3.0 | 5.0 | 0.00 | 0.00 | 0.00 | 90 | 1015.8 |
| 20260904114937 | 71 | 309 | 2.0 | 5.0 | 0.00 | 0.00 | 0.00 | 90 | 1015.8 |
| 20260904114437 | 72 | 301 | 3.0 | 5.0 | 0.00 | 0.00 | 0.00 | 90 | 1015.8 |
| 20260904113938 | 72 | 316 | 2.0 | 4.0 | 0.00 | 0.00 | 0.00 | 89 | 1015.8 |
| 20260904113438 | 72 | 275 | 1.0 | 4.0 | 0.00 | 0.00 | 0.00 | 89 | 1015.8 |
| 20260904112937 | 71 | 282 | 1.0 | 4.0 | 0.00 | 0.00 | 0.00 | 90 | 1015.8 |
| 20260904112437 | 71 | 310 | 3.0 | 4.0 | 0.00 | 0.00 | 0.00 | 90 | 1015.8 |
| 20260904111937 | 71 | 310 | 2.0 | 3.0 | 0.00 | 0.00 | 0.00 | 90 | 1015.8 |
| 20260904111439 | 71 | 287 | 1.0 | 5.0 | 0.00 | 0.00 | 0.00 | 89 | 1015.8 |
| 20260904110937 | 71 | 317 | 4.0 | 4.0 | 0.00 | 0.00 | 0.00 | 89 | 1015.8 |
| 20260904110437 | 71 | 318 | 2.0 | 5.0 | 0.00 | 0.00 | 0.00 | 89 | 1015.8 |
| 20260904105938 | 71 | 315 | 3.0 | 5.0 | 0.00 | 0.00 | 0.00 | 90 | 1015.8 |
| 20260904105438 | 71 | 318 | 3.0 | 4.0 | 0.00 | 0.00 | 0.00 | 89 | 1015.8 |
| 20260904104937 | 72 | 286 | 2.0 | 5.0 | 0.00 | 0.00 | 0.00 | 89 | 1015.8 |
| 20260904104438 | 72 | 317 | 4.0 | 5.0 | 0.00 | 0.00 | 0.00 | 89 | 1015.8 |
| 20260904103937 | 72 | 307 | 1.0 | 4.0 | 0.00 | 0.00 | 0.00 | 88 | 1015.8 |
| 20260904103438 | 72 | 296 | 2.0 | 3.0 | 0.00 | 0.00 | 0.00 | 89 | 1015.8 |
| 20260904102938 | 72 | 257 | 1.0 | 3.0 | 0.00 | 0.00 | 0.00 | 88 | 1015.8 |
| 20260904102437 | 72 | 313 | 3.0 | 4.0 | 0.00 | 0.00 | 0.00 | 87 | 1015.8 |
| 20260904101939 | 72 | 246 | 1.0 | 4.0 | 0.00 | 0.00 | 0.00 | 86 | 1015.8 |
| 20260904101437 | 72 | 316 | 3.0 | 4.0 | 0.00 | 0.00 | 0.00 | 87 | 1015.8 |
| 20260904100937 | 72 | 313 | 2.0 | 4.0 | 0.00 | 0.00 | 0.00 | 86 | 1015.8 |
| 20260904100438 | 72 | 309 | 2.0 | 5.0 | 0.00 | 0.00 | 0.00 | 87 | 1015.8 |
| 20260904095938 | 72 | 317 | 4.0 | 4.0 | 0.00 | 0.00 | 0.00 | 86 | 1015.8 |
| 20260904095440 | 72 | 306 | 3.0 | 4.0 | 0.00 | 0.00 | 0.00 | 86 | 1015.8 |
| 20260904094938 | 72 | 309 | 1.0 | 4.0 | 0.00 | 0.00 | 0.00 | 85 | 1015.8 |
| 20260904094437 | 72 | 318 | 3.0 | 5.0 | 0.00 | 0.00 | 0.00 | 85 | 1015.8 |
| 20260904093940 | 73 | 314 | 3.0 | 4.0 | 0.00 | 0.00 | 0.00 | 86 | 1015.8 |
| 20260904093437 | 73 | 317 | 4.0 | 4.0 | 0.00 | 0.00 | 0.00 | 84 | 1015.8 |
| 20260904092937 | 73 | 309 | 3.0 | 4.0 | 0.00 | 0.00 | 0.00 | 85 | 1015.8 |
| 20260904092437 | 73 | 290 | 0.0 | 2.0 | 0.00 | 0.00 | 0.00 | 84 | 1015.8 |
| 20260904091937 | 73 | 301 | 0.0 | 4.0 | 0.00 | 0.00 | 0.00 | 84 | 1015.8 |
| 20260904091437 | 73 | 297 | 1.0 | 4.0 | 0.00 | 0.00 | 0.00 | 83 | 1015.8 |
| 20260904090937 | 73 | 320 | 3.0 | 4.0 | 0.00 | 0.00 | 0.00 | 83 | 1015.8 |
| 20260904090437 | 73 | 317 | 3.0 | 4.0 | 0.00 | 0.00 | 0.00 | 83 | 1015.8 |
| 20260904085937 | 73 | 285 | 2.0 | 5.0 | 0.00 | 0.00 | 0.00 | 83 | 1015.8 |
| 20260904085438 | 73 | 309 | 2.0 | 4.0 | 0.00 | 0.00 | 0.00 | 83 | 1015.8 |
| 20260904084938 | 73 | 316 | 2.0 | 4.0 | 0.00 | 0.00 | 0.00 | 83 | 1015.8 |
| 20260904084437 | 73 | 282 | 1.0 | 4.0 | 0.00 | 0.00 | 0.00 | 83 | 1015.8 |
| 20260904083938 | 73 | 314 | 2.0 | 5.0 | 0.00 | 0.00 | 0.00 | 83 | 1015.8 |
| 20260904083437 | 73 | 321 | 3.0 | 4.0 | 0.00 | 0.00 | 0.00 | 83 | 1015.8 |
| 20260904082937 | 73 | 320 | 3.0 | 4.0 | 0.00 | 0.00 | 0.00 | 82 | 1015.8 |
| 20260904082438 | 74 | 311 | 2.0 | 5.0 | 0.00 | 0.00 | 0.00 | 81 | 1015.8 |
| 20260904081938 | 74 | 316 | 4.0 | 5.0 | 0.00 | 0.00 | 0.00 | 82 | 1015.8 |
| 20260904081439 | 74 | 322 | 3.0 | 4.0 | 0.00 | 0.00 | 0.00 | 81 | 1015.8 |
| 20260904080938 | 74 | 306 | 3.0 | 5.0 | 0.00 | 0.00 | 0.00 | 81 | 1015.8 |
| 20260904080437 | 74 | 300 | 3.0 | 4.0 | 0.00 | 0.00 | 0.00 | 80 | 1015.8 |
| 20260904075938 | 74 | 270 | 1.0 | 5.0 | 0.00 | 0.00 | 0.00 | 81 | 1015.8 |
| 20260904075437 | 74 | 303 | 2.0 | 5.0 | 0.00 | 0.00 | 0.00 | 80 | 1015.8 |
| 20260904074937 | 74 | 310 | 2.0 | 5.0 | 0.00 | 0.00 | 0.00 | 80 | 1015.8 |
| 20260904074438 | 74 | 309 | 2.0 | 5.0 | 0.00 | 0.00 | 0.00 | 79 | 1015.8 |
| 20260904073939 | 74 | 307 | 3.0 | 4.0 | 0.00 | 0.00 | 0.00 | 79 | 1015.8 |
| 20260904073445 | 75 | 298 | 2.0 | 5.0 | 0.00 | 0.00 | 0.00 | 80 | 1015.8 |
| 20260904072937 | 75 | 310 | 2.0 | 5.0 | 0.00 | 0.00 | 0.00 | 79 | 1015.8 |
| 20260904072438 | 75 | 301 | 1.0 | 5.0 | 0.00 | 0.00 | 0.00 | 78 | 1015.8 |
| 20260904071937 | 75 | 309 | 2.0 | 6.0 | 0.00 | 0.00 | 0.00 | 77 | 1015.8 |
| 20260904071437 | 75 | 311 | 2.0 | 6.0 | 0.00 | 0.00 | 0.00 | 78 | 1015.8 |
| 20260904070937 | 75 | 313 | 3.0 | 4.0 | 0.00 | 0.00 | 0.00 | 78 | 1015.8 |
| 20260904070437 | 75 | 300 | 1.0 | 3.0 | 0.00 | 0.00 | 0.00 | 77 | 1015.8 |
| 20260904065937 | 75 | 299 | 1.0 | 5.0 | 0.00 | 0.00 | 0.00 | 77 | 1015.8 |
| 20260904065437 | 75 | 316 | 4.0 | 6.0 | 0.00 | 0.00 | 0.00 | 78 | 1015.8 |
| 20260904064938 | 75 | 321 | 4.0 | 6.0 | 0.00 | 0.00 | 0.00 | 78 | 1015.8 |
| 20260904064437 | 75 | 311 | 3.0 | 5.0 | 0.00 | 0.00 | 0.00 | 78 | 1015.8 |
| 20260904063937 | 76 | 311 | 3.0 | 5.0 | 0.00 | 0.00 | 0.00 | 77 | 1015.8 |
| 20260904063438 | 76 | 314 | 3.0 | 5.0 | 0.00 | 0.00 | 0.00 | 77 | 1015.8 |
| 20260904062937 | 76 | 301 | 1.0 | 4.0 | 0.00 | 0.00 | 0.00 | 76 | 1015.8 |
| 20260904062438 | 76 | 314 | 2.0 | 4.0 | 0.00 | 0.00 | 0.00 | 76 | 1015.8 |
| 20260904061937 | 76 | 306 | 2.0 | 5.0 | 0.00 | 0.00 | 0.00 | 75 | 1015.8 |
| 20260904061438 | 76 | 308 | 2.0 | 4.0 | 0.00 | 0.00 | 0.00 | 76 | 1015.8 |
| 20260904060938 | 76 | 312 | 2.0 | 5.0 | 0.00 | 0.00 | 0.00 | 76 | 1015.8 |
| 20260904060437 | 76 | 317 | 4.0 | 4.0 | 0.00 | 0.00 | 0.00 | 76 | 1015.8 |
| 20260904055937 | 76 | 300 | 0.0 | 4.0 | 0.00 | 0.00 | 0.00 | 75 | 1015.8 |
| 20260904055437 | 77 | 309 | 2.0 | 4.0 | 0.00 | 0.00 | 0.00 | 76 | 1015.8 |
| 20260904054937 | 77 | 315 | 3.0 | 4.0 | 0.00 | 0.00 | 0.00 | 75 | 1015.8 |
| 20260904054437 | 77 | 305 | 1.0 | 4.0 | 0.00 | 0.00 | 0.00 | 74 | 1015.8 |
| 20260904053938 | 77 | 310 | 2.0 | 4.0 | 0.00 | 0.00 | 0.00 | 74 | 1015.8 |
| 20260904053441 | 77 | 311 | 2.0 | 4.0 | 0.00 | 0.00 | 0.00 | 74 | 1015.8 |
| 20260904052937 | 77 | 298 | 1.0 | 5.0 | 0.00 | 0.00 | 0.00 | 74 | 1015.8 |
| 20260904052437 | 78 | 310 | 2.0 | 5.0 | 0.00 | 0.00 | 0.00 | 73 | 1015.8 |